www.pogodaiklimat.ru

Погода и климат >> Архив погоды >> Россия >> Татарстан >> Чулпаново


АРХИВ ПОГОДЫ в Чулпаново

Время (UTC), дата Ветер
(напр.,м/с)
 
Видим.   Явления Облачность Т
(С)
Тd
(С)
f
(%)
Тe
(С)
Тes
(С)
Комфортность P
(гПа)
Po
(гПа)
Тmin
(С)
Tmax
(С)
R
(мм)
R24
(мм)
S
(см)
12 13.05 ЮЗ 3
{10}
20 км гроза без осадков 10/4 600 м
[Cb cap Ac As Ci fib]
+26.4 +9.2 34 +27 +29 жарко 1017.5 1008.7
15 13.05 штиль 0 20 км {гроза} 10/3 1000 м
[Cu med, cong Ac trans Ci sp]
+28.0 +17.0 51 +32 +32 душно 1016.3 1007.5 +32.2
18 13.05 З 1
{14}
20 км {гроза, ливн. осадки} 10/4 600 м
[Cb cap Ac trans Ci fib]
+19.6 +12.8 65 +22 +22 комфорт 1016.9 1007.9
21 13.05 СЗ 1 20 км 10/3 600 м
[Cb cap Ac trans Ci fib]
+14.7 +12.7 88 +15 +15 1016.8 1007.6
00 14.05 С 1 20 км местами туман поземный 6/0
[Ac trans Ci fib]
+11.8 +10.7 93 +12 +12 1016.1 1006.9
03 14.05 СВ 1 20 км 4/0
[Ac trans Ci fib]
+15.9 +13.6 86 +17 +19 1015.2 1006.1 +11.7 4
06 14.05 СВ 1 20 км 3/0
[Ci fib]
+25.7 +12.2 43 +27 +39 жарко 1014.6 1005.8
09 14.05 СЗ 1 20 км 3/1 1000 м
[Cu hum Ci fib]
+29.5 +9.9 30 +30 +45 жарко 1013.5 1004.8
12 14.05 СЗ 1 20 км 5/5 600 м
[Cb cap]
+31.8 +5.9 20 +30 +35 жарко 1011.9 1003.2
15 14.05 СЗ 2
{12}
20 км в посл. час гроза 10/4 600 м
[Cb cap Ac trans Ci fib]
+23.4 +10.7 45 +26 +26 жарко 1012.1 1003.2 +31.9
18 14.05 СВ 3
{23}
20 км гроза без осадков 10/8 600 м
[Cb cap Ac trans Ci fib]
+20.3 +12.5 61 +23 +23 комфорт 1012.9 1004.0
21 14.05 В 4
{13}
10 км гроза, ливневой дождь 10/6 600 м
[Cb cap Ac trans Ci fib]
+18.9 +13.3 70 +20 +20 1012.9 1003.9
00 15.05 СЗ 1 20 км {гроза, ливн. осадки} 8/0
[Ac trans Ci fib]
+15.2 +12.6 84 +16 +16 1013.2 1004.0
03 15.05 С 1 20 км 3/0
[Ac trans Ci fib]
+17.8 +14.0 78 +19 +21 1013.8 1004.7 +13.7 1
06 15.05 СВ 2 20 км 8/0
[Ac trans Ci sp]
+23.0 +14.6 59 +27 +34 душно 1014.3 1005.4
09 15.05 СВ 3 20 км 8/0
[Ac trans Ci sp]
+25.7 +14.5 50 +28 +38 жарко 1014.2 1005.3
12 15.05 СЗ 2 20 км 10/3 600 м
[Cb cap Ac trans Ci sp]
+28.1 +12.8 39 +30 +33 жарко 1013.4 1004.6
15 15.05 В 5
{10}
20 км гроза без осадков 10/6 600 м
[Cb cap Ac trans Ci fib]
+21.3 +12.5 57 +24 +24 комфорт 1013.8 1004.8 +29.2
18 15.05 ЮВ 4
{10}
10 км гроза, ливневой дождь 10/8 600 м
[Cb cap Ac As]
+17.5 +16.2 92 +17 +17 1015.2 1006.1
21 15.05 СВ 2 10 км гроза без осадков {ливн. осадки} 10/8 600 м
[Cb cap Ac As]
+16.7 +14.3 86 +17 +17 1015.0 1005.8
00 16.05 Ю 2 10 км гроза, ливневой дождь 10/8 600 м
[Cb cap Ac As]
+14.5 +12.7 89 +14 +14 1014.9 1005.7
03 16.05 ЮВ 4 20 км {гроза, ливн. осадки} 10/4 600 м
[Cb cap Ac As Ci sp]
+14.3 +10.1 76 +13 +13 1014.9 1005.7 +13.9 20
06 16.05 Ю 6 20 км {гроза, ливн. осадки} 10/0
[Ac As]
+14.1 +10.3 78 +12 +13 1014.9 1005.7 +12.9
09 16.05 Ю 3 20 км 10/0
[Ac As Ci sp]
+18.8 +13.5 71 +20 +25 1014.6 1005.6
12 16.05 С 2 10 км гроза, ливневой дождь 10/5 600 м
[Cb cap Ac As]
+18.7 +14.7 78 +20 +21 1014.0 1005.0
15 16.05 С 1 4000 м гроза, ливневой дождь 10/8 600 м
[Cb cap Ac As]
+15.9 +15.0 94 +17 +17 1013.1 1004.0 +19.7 5
18 16.05 СЗ 6 20 км {гроза, ливн. осадки} 10/5 600 м
[Cb cap Ac As]
+14.6 +12.9 90 +13 +13 1014.2 1005.0
21 16.05 СЗ 4
{12}
20 км 10/5 600 м
[Cb cap Ac As]
+11.5 +9.4 87 +9 +9 1015.3 1006.0
00 17.05 СЗ 5
{10}
20 км 8/0
[Ac As Ci sp]
+8.3 +5.1 80 +5 +5 1017.1 1007.7
03 17.05 СЗ 5 20 км 6/0
[Ac trans Ci fib]
+8.7 +3.8 71 +5 +6 1017.8 1008.4 +6.8 0.8
06 17.05 С 7-11
{14}
20 км 5/3 1000 м
[Cu hum Ac trans Ci fib]
+11.6 +0.2 45 +9 +11 1018.7 1009.4
09 17.05 СЗ 6-11
{13}
20 км 10/5 600 м
[Cb cap Ac trans Ci sp]
+13.2 +1.7 46 +11 +13 1018.5 1009.2
12 17.05 СЗ 5
{12}
20 км 10/5 600 м
[Cb cap Ac trans Ci sp]
+13.7 +1.0 42 +12 +13 1017.9 1008.6
15 17.05 СЗ 3 20 км 4/1 1000 м
[Cu hum Ac trans Ci sp]
+13.3 +1.9 46 +12 +13 1017.3 1008.0 +14.7
18 17.05 СЗ 1 20 км 3/0
[Ac trans]
+7.4 +3.4 76 +7 +7 1017.5 1008.0
21 17.05 ЮЗ 1 20 км ясно +3.9 +2.5 91 +2 +2 1016.3 1006.7
00 18.05 ЮЗ 3 20 км 4/0
[Ac trans]
+3.8 +2.3 90 -0 -0 1014.8 1005.2
03 18.05 Ю 2 20 км 10/0
[Ac As]
+6.8 +4.8 87 +5 +5 1013.6 1004.1 +3.1
06 18.05 З 2 20 км 8/0
[Ac trans Ci sp]
+12.5 +5.0 60 +12 +18 1012.0 1002.7
09 18.05 СЗ 5 20 км 8/8 600 м
[Cb cap]
+14.6 +2.7 45 +13 +15 1009.7 1000.5
12 18.05 СЗ 5-10
{14}
20 км 8/8 600 м
[Cu hum Ac trans]
+13.3 +3.6 52 +12 +12 1010.0 1000.8
15 18.05 С 5
{13}
20 км 5/5 1000 м
[Cu hum]
+11.8 +0.3 45 +10 +10 1010.6 1001.3 +15.4
18 18.05 С 2 20 км 10/0
[Ac As]
+7.8 -1.2 53 +6 +6 1012.1 1002.7
21 18.05 З 1 20 км 4/0
[Ac trans Ci fib]
+4.9 +1.6 79 +4 +4 1011.2 1001.7
00 19.05 Ю 2 20 км 10/0
[Ac As Ci sp]
+3.4 +1.3 86 0 0 1009.8 1000.3
03 19.05 С 3 20 км в посл. час дождь 10/0
[Ac As Ci sp]
+6.5 +3.4 81 +3 +5 1010.1 1000.7 +2.3
06 19.05 С 4 20 км 10/4 600 м
[Cu hum As trans Ci sp]
+7.9 +0.2 58 +5 +7 1010.6 1001.2
09 19.05 СЗ 5
{10}
20 км 10/0
[Ac As Ci sp]
+9.3 -1.6 46 +7 +10 1011.1 1001.7
12 19.05 СЗ 6
{11}
20 км 10/0
[Ac As]
+8.9 -1.4 48 +6 +7 1012.0 1002.6
15 19.05 СЗ 6
{10}
20 км 10/0
[Ac As]
+7.7 -1.5 52 +4 +4 1013.3 1003.8 +10.4
18 19.05 СЗ 2 20 км 10/0
[Ac As]
+6.3 -0.8 60 +4 +4 1014.7 1005.2
21 19.05 СЗ 2 20 км 8/0
[Ac As]
+4.4 -0.5 70 +2 +2 1015.4 1005.9
00 20.05 З 2 20 км 4/0
[Ac trans]
+3.2 -0.5 77 0 0 1016.0 1006.4
03 20.05 СЗ 2 20 км 10/0
[Ac trans Ci sp]
+4.6 +0.3 74 +2 +3 1016.9 1007.3 +2.1
06 20.05 СЗ 3 20 км 10/6 600 м
[Cb cap Ac As]
+7.8 +1.5 64 +5 +6 1016.7 1007.2
09 20.05 СЗ 5
{11}
20 км 10/8 600 м
[Cu hum Ac As]
+8.7 -0.1 54 +6 +6 1016.9 1007.5

 

Местоположение метеостанции Чулпаново (Татарстан, Россия): широта 54.50 долгота 50.42 высота над уровнем моря 77 м.

В архиве по умолчанию представлена погода в Чулпаново за последнюю неделю. Архивные данные за месяц целиком и за предыдущие месяцы, начиная с января 2011 года, Вы можете получить, выбрав интересующий диапазон дат из раскрывающегося списка и нажав кнопку "Ввод!".


*Определитесь, кто Вы:
робот инопланетянин человек

Внимание! Время в таблицах - всемирное. Для получения местного времени необходимо прибавить поправку, которая равна 3 ч.

Смотрите также архив погоды в соседних городах и на ближайших метеорологических станциях:

Погода в Аксубаево (Татарстан, Россия) (43 км)
Погода в Челно-Вершинах (Самарская область, Россия) (45 км)
Погода в Димитровграде (Ульяновская область, Россия) (61 км)
Погода в Серноводске (Самарская область, Россия) (85 км)
Погода в Алексеевском (Татарстан, Россия) (91 км)
Погода в Чистополе (Татарстан, Россия) (92 км)
Погода в Клявлино (Самарская область, Россия) (107 км)
Погода в Камском Устье (Татарстан, Россия) (109 км)
Погода в Курумоче (Самарская область, Россия) (112 км)
Погода в Тетюшах (Татарстан, Россия) (117 км)

Пояснения к столбцам:

Ветер - указаны скорость ветра в м/с - средняя за 10 мин, порывы в срок и между сроками (в фигурных скобках) и направление, откуда дует ветер: С - северный, СВ - северо-восточный, В - восточный, ЮВ - юго-восточный, Ю - южный, ЮЗ - юго-западный, З - западный, СЗ - северо-западный.
Видимость - горизонтальная дальность видимости в метрах или километрах. При видимости от 1 до 10 км при отсутствии осадков обычно наблюдается дымка, при ухудшении видимости до 1 км и менее - туман. В сухую погоду видимость может ухудшаться дымом, пылью или мглою.
Явления - указаны атмосферные явления, наблюдавшиеся в срок или в последний час перед сроком; фигурными скобками обозначены явления, наблюдавшиеся между сроками (за 1-3 часа до срока); квадратными скобками обозначены град или гололедные отложения с указанием их диаметра в мм.
Облачность - указаны через наклонную черту общая и нижняя облачность в баллах и высота нижней границы облаков в метрах; квадратными скобками обозначены формы облаков: Ci - перистые, Cs - перисто-слоистые, Cc - перисто-кучевые, Ac - высококучевые, As - высокослоистые, Sc - слоисто-кучевые, Ns - слоисто-дождевые, Cu - кучевые, Cb - кучево-дождевые. Подробнее классификацию облаков см. в Атласе облаков (PDF).
T - Температура воздуха - температура, измеренная на высоте 2 м над землей.
Td - Температура точки росы - температура, при понижении до которой содержащийся в воздухе водяной пар достигнет насыщения.
f - Относительная влажность воздуха - влажноcть воздуха, измеренная на высоте 2 м над землей.
Te - Эффективная температура - температура, которую ощущает одетый по сезону человек в тени. Характеристика душности погоды. При расчете учитывается влияние влажности воздуха и скорости ветра на теплоощущения человека.
Tes - Эффективная температура на солнце - температура, которую ощущает человек, с поправкой на солнечный нагрев. Характеристика знойности погоды. Зависит от высоты солнца над горизонтом, облачности и скорости ветра. Ночью, в пасмурную погоду, а также при ветре 12 м/с и более поправка равна нулю.
P - Атмосферное давление - приведенное к уровню моря атмосферное давление.
Po - Атмосферное давление - измеренное на уровне метеостанции атмосферное давление.
Tmin - Минимальная температура - минимум температуры воздуха на высоте 2 м над землей.
Tmax - Максимальная температура - максимум температуры воздуха на высоте 2 м над землей.
R - Количество осадков - Количество выпавших осадков за период времени, мм. При наведении курсора мыши на число - период времени, за который выпало указанное количество осадков.
R24 - Количество осадков - Количество выпавших осадков за 24 часа, мм.
S - Снежный покров - Высота снежного покрова, см. При наведении курсора мыши на число - состояние снежного покрова и степень покрытия местности в баллах.